ELEKTRO-L 4

Last updated on Sun Dec 14 2025 00:02:53 GMT+0000 (Coordinated Universal Time)

1 55506U 23016A 25347.31080073 -.00000044 00000+0 00000+0 0 9993 2 55506 0.0805 117.6098 0002904 136.5554 105.8100 1.00270412 10465
UTC large
Height (km)
Speed (km/s)
/
Latitude / Longitude
Inclination (degrees)
Orbital Period (minutes)
Azimuth
Elevation
Range (km)
Doppler Factor

Next 0 passes for location: London (51.5072 / 0.1276)

Sorry there are no passes over London.